Date String (YYYY-MM-DD hh:mm:ss) UTC,Instrument flags,Ambient pressure (hPa),Sample flow (lpm),Bypass flow (lpm),Sample temperature (°C),Ambient temperature (°C),ASC tube jacket temperature (°C),LED temperature (°C),Box temperature (°C),Sample RH (%),Span deviation,Mass concentration (μg/m³),Mass concentration (μg/m³),Mass concentration (μg/m³)
DateTimeUTC,F1_M11,P_M11,Q1_M11,Q2_M11,T1_M11,T2_M11,T3_M11,T4_M11,T5_M11,U1_M11,ZSPAN_M11,X0_M11,X2_M11,X1_M11
2021-12-17 15:00:00,,0821.3,5.00,0.00,22.8,22.9,00.0,31.6,24.6,08.9,0000.0,0002.25,0000.95,0000.63
2021-12-17 15:01:00,,0821.3,5.01,0.00,22.8,22.7,00.0,31.6,24.6,09.0,0000.0,0003.90,0001.45,0000.92
2021-12-17 15:02:00,,0821.3,5.01,0.00,22.8,22.5,00.0,31.6,24.5,09.0,0000.0,0005.01,0001.95,0001.24
2021-12-17 15:03:00,,0821.3,4.98,0.00,22.8,22.4,00.0,31.6,24.5,09.0,0000.0,0006.18,0002.48,0001.56
2021-12-17 15:04:00,,0821.2,5.01,0.00,22.8,22.3,00.0,31.7,24.5,09.0,0000.0,0007.86,0003.12,0001.88
2021-12-17 15:05:00,,0821.1,4.99,0.00,22.7,22.3,00.0,31.7,24.5,09.0,0000.0,0008.80,0003.45,0002.18
2021-12-17 15:06:00,,0821.2,5.00,0.00,22.7,22.2,00.0,31.7,24.5,09.1,0000.0,0009.65,0003.73,0002.46
2021-12-17 15:07:00,,0821.2,5.01,0.00,22.7,22.2,00.0,31.7,24.5,09.0,0000.0,0010.23,0003.97,0002.71
2021-12-17 15:08:00,,0821.3,4.98,0.00,22.7,22.1,00.0,31.7,24.5,08.7,0000.0,0010.62,0004.17,0002.94
2021-12-17 15:09:00,,0821.2,5.00,0.00,22.7,22.1,00.0,31.7,24.5,08.3,0000.0,0010.99,0004.33,0003.10
2021-12-17 15:10:00,,0821.4,5.00,0.00,22.7,22.1,00.0,31.7,24.5,08.0,0000.0,0010.80,0004.28,0003.08
2021-12-17 15:11:00,,0821.4,5.01,0.00,22.7,22.1,00.0,31.7,24.4,08.1,0000.0,0010.39,0004.18,0002.91
2021-12-17 15:12:00,,0821.2,4.99,0.00,22.7,22.0,00.0,31.7,24.4,07.8,0000.0,0009.61,0003.97,0002.70
2021-12-17 15:13:00,,0821.1,5.00,0.00,22.7,22.0,00.0,31.7,24.4,07.5,0000.0,0009.05,0003.73,0002.41
2021-12-17 15:14:00,,0821.1,5.01,0.00,22.7,22.0,00.0,31.7,24.3,07.5,0000.0,0008.83,0003.45,0002.11
2021-12-17 15:15:00,,0821.1,4.99,0.00,22.7,21.9,00.0,31.7,24.3,07.4,0000.0,0008.21,0003.06,0001.81
2021-12-17 15:16:00,,0821.1,4.99,0.00,22.6,21.8,00.0,31.6,24.2,07.3,0000.0,0007.15,0002.51,0001.51
2021-12-17 15:17:00,,0821.1,5.01,0.00,22.6,21.7,00.0,31.6,24.2,07.4,0000.0,0005.63,0001.99,0001.22
2021-12-17 15:18:00,,0821.1,4.99,0.00,22.6,21.7,00.0,31.6,24.2,07.4,0000.0,0004.58,0001.55,0000.97
2021-12-17 15:19:00,,0821.0,5.01,0.00,22.6,21.7,00.0,31.6,24.1,07.4,0000.0,0003.87,0001.19,0000.75
2021-12-17 15:20:00,,0821.1,4.99,0.00,22.5,21.7,00.0,31.6,24.1,07.4,0000.0,0003.22,0000.91,0000.59
2021-12-17 15:21:00,,0821.1,5.01,0.00,22.5,21.6,00.0,31.6,24.1,07.5,0000.0,0002.85,0000.71,0000.49
2021-12-17 15:22:00,,0821.2,5.00,0.00,22.5,21.6,00.0,31.6,24.0,07.4,0000.0,0002.40,0000.47,0000.35
2021-12-17 15:23:00,,0821.1,5.00,0.00,22.5,21.5,00.0,31.6,24.0,07.5,0000.0,0002.24,0000.36,0000.28
2021-12-17 15:24:00,,0821.2,4.99,0.00,22.5,21.8,00.0,31.6,24.1,07.4,0000.0,0002.19,0000.33,0000.26
2021-12-17 15:25:00,,0821.2,5.01,0.00,22.6,22.5,00.0,31.6,24.4,07.4,0000.0,0001.37,0000.30,0000.23
2021-12-17 15:26:00,,0821.2,4.99,0.00,22.7,23.4,00.0,31.7,24.7,07.4,0000.0,0000.44,0000.28,0000.22
2021-12-17 15:27:00,,0821.3,5.01,0.00,22.8,23.5,00.0,31.7,24.8,07.3,0000.0,0000.45,0000.29,0000.22
2021-12-17 15:28:00,,0821.3,5.00,0.00,22.9,23.3,00.0,31.7,24.8,07.2,0000.0,0000.47,0000.30,0000.22
2021-12-17 15:29:00,,0821.4,4.99,0.00,22.9,23.1,00.0,31.7,24.7,07.3,0000.0,0000.47,0000.30,0000.22
2021-12-17 15:30:00,,0821.4,5.00,0.00,22.9,22.9,00.0,31.7,24.7,07.3,0000.0,0000.50,0000.32,0000.22
2021-12-17 15:31:00,,0821.4,5.00,0.00,22.9,22.7,00.0,31.8,24.7,07.3,0000.0,0000.57,0000.34,0000.23
2021-12-17 15:32:00,,0821.4,5.00,0.00,22.9,22.6,00.0,31.8,24.6,07.2,0000.0,0000.59,0000.35,0000.23
2021-12-17 15:33:00,,0821.4,5.00,0.00,22.9,22.4,00.0,31.8,24.6,07.2,0000.0,0000.56,0000.34,0000.24
2021-12-17 15:34:00,,0821.4,5.01,0.00,22.8,22.3,00.0,31.8,24.5,07.3,0000.0,0000.62,0000.37,0000.25
2021-12-17 15:35:00,,0821.5,5.00,0.00,22.8,22.3,00.0,31.8,24.5,08.3,0000.0,0001.44,0000.73,0000.46
2021-12-17 15:36:00,,0821.5,5.00,0.00,22.8,22.2,00.0,31.8,24.5,08.6,0000.0,0004.23,0001.52,0000.91
2021-12-17 15:37:00,,0821.5,5.00,0.00,22.8,22.2,00.0,31.8,24.5,08.5,0000.0,0006.60,0002.05,0001.30
2021-12-17 15:38:00,,0821.5,5.01,0.00,22.8,22.1,00.0,31.8,24.5,08.4,0000.0,0007.62,0002.57,0001.62
2021-12-17 15:39:00,,0821.5,5.00,0.00,22.8,22.1,00.0,31.8,24.5,08.2,0000.0,0008.63,0002.99,0001.88
2021-12-17 15:40:00,,0821.5,4.99,0.00,22.8,22.1,00.0,31.8,24.5,08.3,0000.0,0009.37,0003.30,0002.13
2021-12-17 15:41:00,,0821.5,5.01,0.00,22.8,22.1,00.0,31.8,24.5,08.3,0000.0,0010.36,0003.52,0002.37
2021-12-17 15:42:00,,0821.5,5.00,0.00,22.8,22.1,00.0,31.8,24.5,08.4,0000.0,0011.16,0003.76,0002.62
2021-12-17 15:43:00,,0821.5,5.00,0.00,22.8,22.1,00.0,31.8,24.6,08.4,0000.0,0011.66,0004.01,0002.86
2021-12-17 15:44:00,,0821.5,5.01,0.00,22.8,22.1,00.0,31.8,24.6,08.4,0000.0,0012.84,0004.24,0003.08
2021-12-17 15:45:00,,0821.5,4.98,0.00,22.8,22.2,00.0,31.8,24.6,08.4,0000.0,0014.30,0004.46,0003.22
2021-12-17 15:46:00,,0821.5,5.02,0.00,22.8,22.2,00.0,31.8,24.6,08.1,0000.0,0014.24,0004.39,0003.19
2021-12-17 15:47:00,,0821.5,4.99,0.00,22.9,22.2,00.0,31.8,24.7,08.2,0000.0,0013.43,0004.14,0002.99
2021-12-17 15:48:00,,0821.6,5.01,0.00,22.9,22.2,00.0,31.8,24.7,08.2,0000.0,0012.57,0004.01,0002.77
2021-12-17 15:49:00,,0821.6,5.00,0.00,22.9,22.2,00.0,31.8,24.7,07.8,0000.0,0012.31,0003.84,0002.55
2021-12-17 15:50:00,,0821.6,5.00,0.00,22.9,22.2,00.0,31.8,24.6,07.8,0000.0,0011.64,0003.67,0002.35
2021-12-17 15:51:00,,0821.7,4.99,0.00,22.9,22.1,00.0,31.8,24.6,08.4,0000.0,0011.19,0003.57,0002.25
2021-12-17 15:52:00,,0821.6,5.01,0.00,22.9,22.1,00.0,31.8,24.6,08.3,0000.0,0010.55,0003.49,0002.16
2021-12-17 15:53:00,,0821.5,5.00,0.00,22.9,22.0,00.0,31.8,24.6,07.2,0000.0,0009.80,0003.31,0001.97
2021-12-17 15:54:00,,0821.6,5.01,0.00,22.9,22.0,00.0,31.8,24.6,06.9,0000.0,0009.40,0003.08,0001.75
2021-12-17 15:55:00,,0821.7,4.98,0.00,22.9,22.0,00.0,31.8,24.5,07.0,0000.0,0008.83,0002.74,0001.55
2021-12-17 15:56:00,,0821.6,5.00,0.00,22.9,22.0,00.0,31.8,24.5,07.1,0000.0,0006.76,0002.33,0001.32
2021-12-17 15:57:00,,0821.5,5.01,0.00,22.9,21.9,00.0,31.8,24.5,07.2,0000.0,0005.98,0002.08,0001.16
2021-12-17 15:58:00,,0821.5,5.00,0.00,22.9,21.9,00.0,31.8,24.5,07.7,0000.0,0004.90,0001.88,0001.05
2021-12-17 15:59:00,,0821.5,5.00,0.00,22.9,21.9,00.0,31.8,24.5,07.5,0000.0,0003.96,0001.58,0000.91
